GEFSCGP_850_meantemp_300.txt.gz
Temperature
19 17 17 18 18 18 18 18 18 18 18 17 16 16 16 16 16 16 16 16 16 17 17 17 17 17 17 17 17 16 16 16 16 16 16 16 15 15 15 15 15 15 15 15
17 18 18 18 18 18 18 18 17 18 18 17 16 16 16 16 15 16 16 16 16 17 17 17 17 17 17 17 17 16 16 16 16 16 15 15 15 15 15 15 15 15 14 14
19 19 19 19 19 18 18 18 18 18 17 17 17 16 16 16 16 16 16 16 16 16 17 17 17 17 17 16 16 16 16 16 16 15 15 15 15 15 15 15 15 14 14 14
18 19 19 19 19 19 18 18 18 18 17 16 17 15 16 15 15 15 15 15 16 16 16 16 17 17 17 16 16 16 16 16 16 15 15 15 15 15 15 15 14 14 14 14
18 19 19 19 19 19 18 18 18 17 16 15 15 15 15 15 15 15 14 15 15 16 16 16 16 17 16 16 16 16 16 16 16 15 15 15 15 15 14 14 14 14 14 14
18 19 19 19 19 19 18 17 16 14 14 15 15 15 15 14 15 15 14 15 15 15 16 16 16 16 16 16 16 16 16 15 15 15 15 15 15 15 14 14 14 14 14 14
18 18 19 19 19 18 17 16 15 15 14 14 15 15 14 15 15 14 14 15 15 15 16 16 16 16 16 16 16 16 15 15 15 15 15 15 15 14 14 14 14 14 14 14
17 17 18 18 18 17 17 16 15 15 15 14 15 14 14 15 15 15 15 15 15 15 15 15 16 16 16 16 15 15 15 15 15 15 15 15 14 14 14 14 14 14 14 14
16 16 18 18 18 17 16 15 15 14 14 14 14 14 15 15 14 14 14 15 15 15 15 15 15 15 15 15 15 15 15 15 15 15 15 14 14 14 14 14 14 14 14 14
16 16 17 17 17 17 16 14 13 14 14 14 15 14 14 15 14 14 14 14 15 15 15 15 15 15 15 15 15 15 15 15 15 15 15 14 14 14 14 14 14 14 14 14
16 16 16 16 16 16 15 15 13 12 13 14 14 14 15 14 14 14 14 15 15 15 15 15 15 15 15 15 15 15 15 15 15 15 14 14 14 14 14 14 14 14 14 13
14 13 14 15 16 16 16 15 13 14 13 12 13 13 15 14 14 14 14 14 15 15 15 15 15 15 15 15 15 15 15 15 14 14 14 14 14 14 14 14 14 14 13 13
14 13 14 15 15 15 16 15 14 13 12 11 12 14 14 13 13 14 14 14 15 15 15 15 15 15 15 15 15 15 14 14 14 14 14 14 14 14 13 13 13 13 13 13
14 13 14 15 15 15 15 15 14 13 12 12 12 14 14 13 13 13 13 14 15 15 15 15 15 15 15 15 14 14 14 14 14 14 14 14 13 13 13 13 13 13 13 13
13 13 14 14 15 15 15 15 14 14 13 13 14 13 13 13 13 13 13 14 14 14 14 14 14 14 14 14 14 14 14 14 14 13 13 13 13 13 13 12 12 12 12 12
12 13 14 14 14 14 14 14 14 14 14 13 13 13 13 13 13 13 13 13 13 14 14 14 14 14 14 14 14 14 13 13 13 13 13 13 13 12 12 12 12 12 12 12
11 12 13 13 13 14 14 14 14 14 13 14 13 13 12 12 12 13 13 14 13 14 14 14 14 14 14 13 13 13 13 13 13 13 13 12 12 12 12 12 12 11 11 11
11 11 10 11 13 14 14 14 14 14 13 13 13 13 12 13 13 14 14 14 14 14 13 13 13 13 13 13 13 13 13 13 12 12 12 12 12 12 11 11 11 11 11 11
10 11 10 10 12 12 13 14 13 14 13 13 12 12 12 13 13 13 14 14 14 14 13 13 13 13 13 13 13 13 12 12 12 12 12 11 11 11 11 11 11 11 11 11
9 10 10 10 12 12 13 14 14 13 13 13 12 12 12 12 10 11 13 13 13 13 13 13 13 13 13 12 12 12 12 12 12 11 11 11 11 11 11 10 10 10 10 10
10 10 9 10 11 11 12 13 14 13 13 13 13 12 12 11 12 13 13 13 13 13 12 12 12 12 12 12 12 12 11 11 11 11 11 11 10 10 10 10 10 10 9 9
10 10 9 9 10 11 12 12 12 12 13 13 13 13 13 13 13 13 13 13 12 12 12 12 12 12 12 11 11 11 11 11 11 11 10 10 10 10 10 10 9 9 9 9
9 10 9 10 11 12 12 13 14 13 13 13 13 13 13 13 12 12 12 12 12 12 12 11 11 11 11 11 11 10 10 10 10 10 10 10 9 9 9 9 9 9 8 8
9 9 9 9 10 11 12 13 13 13 13 13 13 13 12 12 12 12 12 11 11 11 11 11 11 11 10 10 10 10 10 10 9 9 9 9 9 9 9 8 8 8 8 8
9 8 8 9 9 11 12 13 13 13 13 12 12 12 12 12 12 11 11 11 11 11 11 11 10 10 10 10 10 9 9 9 9 9 9 9 8 8 8 8 8 8 7 7
8 8 9 10 11 10 12 12 12 12 12 12 12 12 11 11 11 11 11 11 10 10 10 10 10 10 10 9 9 9 9 9 9 9 8 8 8 8 7 7 7 7 7 7

GEFSCGP_850_meantemp_306.txt.gz
Temperature
23 23 23 23 23 23 23 23 22 22 22 21 21 21 21 20 19 19 18 18 18 17 17 16 16 16 16 16 16 16 16 16 15 15 15 15 15 15 15 15 15 14 14 14
23 23 23 23 22 22 22 22 22 22 21 21 21 21 21 20 19 19 18 18 18 17 17 16 16 16 16 16 16 16 16 16 15 15 15 15 15 15 15 15 14 14 14 14
23 23 22 22 22 22 22 22 22 22 21 21 21 21 21 21 19 18 18 17 17 17 17 16 16 16 16 16 16 16 16 15 15 15 15 15 15 15 14 14 14 14 14 14
23 22 22 22 22 22 22 22 22 21 21 21 21 21 21 21 20 19 18 17 17 17 17 16 16 16 16 16 16 15 15 15 15 15 15 15 15 14 14 14 14 14 14 14
22 22 22 22 22 22 22 21 22 21 21 21 21 21 21 21 20 20 19 18 17 17 16 16 16 16 16 16 16 15 15 15 15 15 15 15 15 14 14 14 14 14 14 14
22 22 22 22 22 22 21 21 21 21 22 21 21 21 21 21 20 20 19 18 17 17 16 16 16 15 15 15 15 15 15 15 15 15 15 15 14 14 14 14 14 14 14 14
22 22 22 22 22 21 22 22 21 21 21 21 21 21 21 21 20 19 19 18 17 16 16 16 15 15 15 15 15 15 15 15 15 15 15 14 14 14 14 14 14 13 13 13
22 22 22 22 22 22 22 22 21 21 21 21 21 20 21 20 19 18 18 17 17 16 16 15 15 15 15 15 15 15 15 15 14 14 14 14 14 14 14 14 13 13 13 13
22 22 21 21 21 22 21 22 22 21 21 21 21 21 20 20 19 18 18 17 17 16 16 15 15 15 15 15 15 14 14 14 14 14 14 14 14 14 14 13 13 13 13 13
22 21 21 21 21 20 21 21 21 21 20 20 21 21 21 20 20 19 18 18 17 16 16 15 15 15 15 15 15 14 14 14 14 14 14 14 14 14 14 13 13 13 13 13
21 21 21 21 21 21 20 20 21 21 20 20 20 21 21 20 20 19 19 17 17 16 16 15 15 15 14 15 14 14 14 14 14 14 14 14 14 14 13 13 13 13 13 13
20 21 21 21 20 20 21 21 21 20 20 20 20 20 20 20 19 18 18 17 16 16 15 15 15 14 14 14 14 14 14 14 14 14 14 14 13 13 13 13 13 13 13 13
20 20 20 20 20 20 20 20 20 20 20 20 20 20 19 19 19 18 17 16 16 16 15 15 14 14 14 14 14 14 14 14 14 14 13 13 13 13 13 13 13 13 13 13
19 20 20 20 20 20 20 19 19 20 20 20 20 20 20 19 19 18 17 16 16 15 15 15 14 14 14 14 14 14 14 13 13 13 13 13 13 13 13 12 12 12 12 12
19 20 20 20 19 19 19 19 19 19 20 20 20 20 20 19 18 17 17 16 16 15 15 14 14 14 14 13 13 13 13 13 13 13 13 13 13 12 12 12 12 12 12 12
19 19 19 19 19 19 18 19 19 19 19 19 19 19 20 18 17 17 16 16 15 15 14 14 14 14 13 13 13 13 13 12 12 12 13 13 12 12 12 12 12 12 12 11
18 19 19 19 19 18 18 19 19 19 19 19 19 19 18 18 17 16 16 15 15 14 14 14 13 13 13 13 13 12 12 12 12 12 12 12 12 12 11 11 11 11 11 11
18 18 18 18 18 18 19 19 19 18 18 19 19 18 17 17 16 15 15 15 14 14 13 13 13 13 12 12 12 12 12 12 12 11 11 11 11 11 11 11 11 11 11 11
17 18 18 18 18 18 19 18 18 18 18 18 18 17 16 16 16 15 14 13 13 13 13 12 12 12 12 12 12 12 11 11 11 11 11 11 11 11 11 10 10 10 10 10
16 17 18 17 17 18 18 18 17 17 17 17 17 16 16 15 17 16 14 13 13 12 12 12 12 12 11 11 11 11 11 11 11 10 10 10 10 10 10 10 10 10 10 9
16 16 17 17 17 18 18 16 16 17 18 16 15 15 15 15 16 14 13 12 12 12 12 11 11 11 11 11 11 11 11 10 10 10 10 10 10 10 10 10 10 9 9 9
17 17 17 17 17 17 16 16 17 17 16 15 14 14 14 13 13 12 12 12 12 11 11 11 11 11 10 10 10 10 10 10 10 10 10 10 9 9 9 9 9 9 9 9
16 17 17 17 17 16 15 16 15 14 14 14 14 13 13 12 12 12 11 11 11 11 11 10 10 10 10 10 10 10 10 9 9 9 9 9 9 9 9 9 9 8 8 8
16 14 15 15 16 15 14 14 13 13 13 13 12 12 12 12 11 11 11 11 10 10 10 10 10 9 9 9 9 9 9 9 9 8 8 8 8 8 8 8 8 8 8 8
15 14 15 15 15 14 13 13 12 12 12 12 12 11 11 11 11 11 10 10 10 10 9 9 9 9 9 9 9 9 8 8 8 8 8 8 7 8 8 8 8 7 7 7
13 14 15 15 15 15 14 12 12 12 11 11 11 11 10 10 10 10 10 9 9 9 9 9 9 8 8 8 8 8 8 8 7 7 7 7 7 7 7 7 7 7 7 7

GEFSCGP_850_meantemp_312.txt.gz
Temperature
25 24 23 24 25 25 25 24 24 24 25 24 23 22 22 22 22 21 21 20 19 19 18 18 18 18 17 17 17 17 17 16 16 16 16 16 16 15 15 15 15 15 15 15
24 24 25 25 25 25 24 24 24 24 25 24 23 22 23 22 21 21 21 20 19 19 18 18 18 17 17 17 17 17 17 16 16 16 16 16 15 15 15 15 15 15 15 15
24 25 26 25 25 24 24 24 24 24 24 24 23 21 22 22 22 21 21 20 19 19 18 18 17 17 17 17 17 17 16 16 16 16 16 15 15 15 15 15 15 15 15 15
25 25 25 25 24 24 23 24 24 24 23 22 23 21 21 22 21 21 21 20 20 19 19 18 18 17 17 17 17 16 16 16 16 16 16 15 15 15 15 15 15 15 14 14
24 25 24 24 24 24 24 24 24 24 23 22 23 22 21 22 21 21 21 20 20 19 19 18 17 17 17 16 16 16 16 16 16 16 16 15 15 15 15 15 14 14 14 14
25 25 25 24 24 25 24 24 24 24 23 21 22 22 21 21 22 21 21 20 20 19 19 18 17 17 17 16 16 16 16 16 16 16 15 15 15 15 15 14 14 14 14 14
24 25 25 25 24 24 24 22 21 21 21 21 23 22 21 22 22 22 21 21 20 19 19 18 17 17 16 16 16 16 16 15 15 15 15 15 15 15 15 14 14 14 14 14
24 23 24 24 24 23 23 23 21 21 21 22 23 22 21 22 22 22 21 20 20 19 18 18 18 17 16 16 16 16 15 15 15 15 15 15 15 15 15 14 14 14 14 14
24 23 25 25 25 24 23 23 24 23 22 22 22 22 22 22 21 21 21 20 20 19 18 18 17 17 16 16 16 15 15 15 15 15 15 15 15 14 14 14 14 14 14 14
24 23 24 24 24 24 24 23 23 22 21 21 22 22 21 20 21 21 21 20 20 19 18 18 17 17 16 16 15 15 15 15 15 15 14 14 14 14 14 14 14 14 14 14
24 23 23 24 23 23 23 23 23 22 22 21 20 20 22 21 21 21 21 20 20 19 18 18 17 17 16 16 15 15 15 15 15 14 14 14 14 14 14 14 14 13 13 13
23 23 22 23 24 24 24 23 23 21 21 21 20 20 23 22 22 21 20 20 19 19 18 18 17 16 16 15 15 15 15 14 14 14 14 14 14 13 13 13 13 13 13 13
22 22 21 22 22 23 23 23 23 22 21 21 20 20 22 22 21 21 20 19 19 18 18 17 17 16 16 15 15 15 14 14 14 14 14 14 13 13 13 13 13 13 13 13
20 21 21 21 22 22 22 22 23 22 20 20 21 21 21 21 20 20 19 19 18 18 18 17 16 16 15 15 15 14 14 14 14 13 13 13 13 13 13 13 13 12 12 12
21 21 22 22 23 23 22 22 22 22 21 21 21 21 21 21 20 20 19 18 18 17 17 17 16 16 15 15 14 14 14 14 13 13 13 13 12 12 12 12 12 12 12 12
21 21 21 21 22 22 22 22 22 21 21 21 21 21 21 21 20 19 18 18 17 17 16 16 16 15 15 14 14 14 14 13 13 13 13 12 12 12 12 12 12 12 12 11
20 20 20 20 21 21 20 21 21 21 22 21 20 20 20 20 19 18 18 17 16 16 16 15 15 15 14 14 14 13 13 13 13 12 12 12 12 12 12 11 11 11 11 11
20 20 19 19 20 19 20 22 22 21 21 21 20 20 19 19 18 18 17 16 16 15 15 15 14 14 14 13 13 13 13 13 12 12 12 12 11 11 11 11 11 11 11 11
20 19 19 19 19 19 20 21 21 20 20 20 20 19 19 18 18 17 17 16 15 15 14 14 14 13 13 13 13 13 12 12 12 12 11 11 11 11 11 10 10 10 10 10
19 19 19 19 18 18 19 20 20 20 18 19 19 18 18 18 16 16 16 15 14 14 13 13 13 13 13 13 12 12 12 12 11 11 11 11 10 10 10 10 10 10 10 10
18 18 18 18 18 19 19 20 20 18 17 18 18 18 17 17 16 15 15 14 13 13 13 12 12 12 12 12 12 11 11 11 11 11 10 10 10 10 10 10 9 9 9 9
18 18 18 18 18 17 18 19 18 17 18 17 17 16 16 15 15 14 14 13 13 12 12 12 12 11 11 11 11 11 11 10 10 10 10 10 9 9 9 9 9 9 9 9
18 18 17 17 17 17 17 17 17 17 16 16 16 15 15 14 14 13 13 12 12 12 11 11 11 11 10 10 10 10 10 10 10 10 9 9 9 9 8 8 8 8 8 8
18 18 18 17 17 17 16 16 16 16 15 15 15 14 14 14 13 13 12 12 11 11 11 11 10 10 10 10 10 10 9 9 9 9 9 9 8 8 8 8 8 8 8 8
16 17 17 16 16 16 16 15 15 15 14 14 14 13 13 13 12 12 12 11 11 11 10 10 10 10 9 9 9 9 9 9 9 8 8 8 8 7 7 7 7 7 7 7
16 16 16 15 15 15 14 14 14 14 13 13 13 12 12 12 12 11 11 11 10 10 10 9 9 9 9 9 8 8 8 8 8 8 8 7 7 7 7 7 6 7 7 7

GEFSCGP_850_meantemp_318.txt.gz
Temperature
21 18 18 19 19 19 20 20 19 19 20 19 18 18 17 18 18 17 17 17 17 17 18 17 17 17 17 17 17 17 16 16 16 16 16 16 15 15 15 15 15 15 15 15
18 18 20 20 20 20 20 19 19 20 20 19 18 18 17 17 17 17 17 17 17 17 17 17 17 17 17 17 17 16 16 16 16 16 16 15 15 15 15 15 15 15 15 14
19 20 21 21 21 21 20 19 19 19 20 19 18 17 17 17 17 17 18 18 18 17 17 17 17 17 17 17 17 16 16 16 16 16 15 15 15 15 15 15 15 14 14 14
19 21 21 21 21 21 19 20 21 20 19 17 18 16 16 16 16 16 17 17 17 17 17 17 17 17 17 16 16 16 16 16 16 15 15 15 15 15 15 15 14 14 14 14
20 21 21 21 21 21 20 21 21 20 18 17 17 16 15 16 16 16 16 17 17 17 17 17 17 17 17 16 16 16 16 16 16 15 15 15 15 15 15 14 14 14 14 14
20 21 21 21 21 22 21 20 19 16 16 16 17 16 16 15 16 16 16 17 17 17 17 17 17 17 17 16 16 16 16 16 15 15 15 15 15 15 14 14 14 14 14 14
19 20 21 21 21 21 19 17 16 16 15 16 17 16 16 16 17 17 17 17 17 17 17 17 17 16 16 16 16 16 16 15 15 15 15 15 15 14 14 14 14 14 14 14
18 18 20 21 20 19 19 17 16 16 16 15 16 16 16 17 17 18 18 18 17 17 17 17 17 16 16 16 16 16 15 15 15 15 15 14 14 14 14 14 14 14 14 14
18 18 20 21 21 20 19 17 17 16 16 16 15 16 17 17 17 17 17 17 17 17 17 17 16 16 16 16 16 15 15 15 15 15 14 14 14 14 14 14 14 13 13 13
19 18 19 20 21 20 20 18 15 16 16 15 16 16 16 17 16 16 16 16 17 17 17 17 16 16 16 16 16 15 15 15 15 15 14 14 14 14 14 13 13 13 13 13
18 18 18 19 19 19 19 18 16 14 15 15 15 16 17 17 17 16 16 17 17 17 16 16 16 16 16 16 15 15 15 15 15 14 14 14 14 13 13 13 13 13 13 13
17 15 16 17 18 19 19 18 16 15 15 14 14 15 17 17 17 17 16 16 17 17 16 16 16 16 16 15 15 15 15 14 14 14 14 14 13 13 13 13 13 13 13 13
16 15 15 16 17 18 19 18 17 15 14 14 14 16 17 16 16 16 16 16 16 16 16 16 15 15 15 15 15 15 14 14 14 14 13 13 13 13 13 13 12 12 12 12
16 14 15 16 16 17 17 18 18 16 14 14 15 16 16 16 15 15 15 15 15 15 15 15 15 15 14 14 14 14 14 14 13 13 13 13 13 13 12 12 12 12 12 12
15 15 15 15 16 17 17 18 18 17 15 15 16 15 15 15 15 15 15 15 14 14 14 14 14 14 14 14 14 14 13 13 13 13 13 12 12 12 12 12 12 12 12 11
14 15 15 15 17 16 17 17 17 17 16 16 16 15 15 15 15 14 14 14 14 14 14 14 14 14 13 13 13 13 13 13 13 13 12 12 12 12 12 12 11 11 11 11
13 14 14 14 15 16 16 16 16 16 16 16 15 15 14 14 14 14 14 14 14 14 14 14 13 13 13 13 13 13 13 12 12 12 12 12 11 11 11 11 11 11 11 10
13 13 12 13 14 15 15 16 16 15 15 15 15 14 14 14 14 14 14 14 14 14 13 13 13 13 13 13 12 12 12 12 12 11 11 11 11 11 11 10 10 10 10 10
13 13 12 12 13 14 15 15 15 15 14 14 14 14 14 14 14 13 14 14 14 14 13 13 13 13 12 12 12 12 11 11 11 11 11 10 10 10 10 10 10 10 9 9
12 12 12 12 13 13 14 15 16 15 14 14 14 13 13 13 11 12 13 13 13 13 13 13 12 12 12 11 11 11 11 11 10 10 10 10 10 10 10 9 9 9 9 9
13 12 12 12 12 12 13 15 15 14 13 14 14 14 13 12 12 13 13 13 13 13 12 12 12 12 11 11 11 11 10 10 10 10 10 10 10 9 9 9 9 8 8 8
12 11 11 11 12 12 13 14 13 13 14 14 14 14 13 13 13 13 13 12 12 12 12 11 11 11 11 10 10 10 10 10 10 9 9 9 9 9 8 8 8 8 8 8
11 11 11 11 12 12 13 13 14 14 14 14 13 14 13 13 12 12 12 12 11 11 11 11 11 11 10 10 10 10 10 9 9 9 9 9 8 8 8 8 7 7 7 7
11 11 10 10 11 12 13 13 13 14 14 13 13 13 13 12 12 12 11 11 11 11 10 10 10 10 10 9 9 9 9 9 9 9 8 8 8 8 8 7 7 7 6 6
10 10 10 10 10 11 12 13 13 13 13 13 13 12 12 12 12 11 11 11 10 10 10 10 10 10 9 9 9 9 9 9 8 8 8 8 7 7 7 7 6 6 6 6
9 9 9 9 10 10 11 12 12 12 12 12 12 11 11 11 11 11 10 10 10 10 9 9 9 9 9 9 8 8 8 8 8 8 7 7 7 7 6 6 6 6 6 6

GEFSCGP_850_meantemp_324.txt.gz
Temperature
19 17 17 17 17 18 18 17 17 17 18 17 16 16 16 16 16 15 15 16 16 17 17 17 16 16 16 16 16 16 16 16 15 15 15 15 15 15 15 14 14 14 14 14
17 17 18 18 18 18 17 17 17 17 18 17 16 16 16 15 15 16 16 16 16 17 17 16 16 16 16 16 16 16 16 16 15 15 15 15 15 15 14 14 14 14 14 14
18 18 19 19 18 18 18 17 17 17 17 17 17 16 16 16 16 16 16 16 16 17 17 17 16 16 16 16 16 16 16 16 15 15 15 15 15 14 14 14 14 14 14 14
17 18 19 18 18 18 17 18 18 17 16 15 16 15 15 15 15 15 15 16 16 16 17 17 17 16 16 16 16 16 16 16 15 15 15 15 15 14 14 14 14 14 14 14
18 18 18 18 18 18 18 18 18 17 16 15 15 15 15 14 15 15 15 16 16 17 17 17 17 17 16 16 16 16 16 15 15 15 15 15 14 14 14 14 14 14 14 14
18 18 19 19 19 18 18 17 16 14 14 15 16 15 15 14 15 15 15 16 16 16 17 17 17 16 16 16 16 16 15 15 15 15 15 14 14 14 14 14 14 14 14 14
18 18 18 19 18 18 17 16 15 15 14 15 15 15 14 15 15 15 15 16 16 17 16 16 16 16 16 16 16 15 15 15 15 15 14 14 14 14 14 14 13 13 13 13
17 17 18 18 18 17 17 16 15 16 15 14 15 14 15 15 15 16 16 16 16 16 16 16 16 16 16 16 16 15 15 15 15 14 14 14 14 14 14 13 13 13 13 13
16 17 18 18 18 17 16 15 15 14 14 14 14 14 15 15 15 14 15 15 16 16 16 16 16 16 16 16 16 15 15 15 15 14 14 14 14 14 13 13 13 13 13 13
16 16 17 17 18 17 16 14 13 14 14 14 14 14 14 15 14 14 14 14 15 15 16 16 16 16 16 16 15 15 15 15 14 14 14 14 14 13 13 13 13 13 13 13
16 16 16 17 17 17 16 15 13 12 13 13 14 14 15 14 14 14 13 14 15 15 15 15 15 15 15 15 15 15 15 14 14 14 14 14 13 13 13 13 13 13 12 12
14 13 14 16 16 17 16 15 13 14 14 12 13 14 15 14 14 14 14 14 14 15 15 15 15 15 15 15 15 14 14 14 14 14 14 13 13 13 13 13 12 12 12 12
14 13 14 15 15 16 16 15 14 13 12 11 12 14 14 13 13 14 14 14 14 14 14 14 14 14 14 14 14 14 14 14 14 13 13 13 13 13 12 12 12 12 12 11
14 13 14 15 15 15 15 15 14 13 12 12 12 13 14 13 13 13 13 13 14 14 14 14 13 13 13 13 13 13 13 13 13 13 13 12 12 12 12 12 11 11 11 11
13 13 14 14 14 14 15 14 14 14 13 13 13 13 13 13 12 13 13 13 13 13 13 13 13 13 13 13 13 13 13 13 12 12 12 12 12 12 11 11 11 11 11 10
12 13 13 14 14 14 14 14 14 14 13 13 13 13 13 13 13 12 12 13 12 13 13 13 13 12 12 12 12 12 12 12 12 12 12 11 11 11 11 11 10 10 10 10
11 12 12 12 13 14 13 14 14 13 13 13 13 13 12 12 12 12 12 13 13 12 12 12 12 12 12 12 12 12 12 12 11 11 11 11 11 11 10 10 10 10 10 9
11 11 10 11 13 14 13 13 13 13 13 12 12 12 12 12 12 13 13 13 12 12 12 12 12 12 12 12 12 11 11 11 11 11 11 10 10 10 10 10 9 9 9 9
10 10 10 10 11 12 13 13 13 13 12 12 12 12 11 12 12 12 12 12 13 12 12 12 12 12 11 11 11 11 11 11 10 10 10 10 10 10 9 9 9 8 8 8
9 9 10 10 12 12 13 13 13 13 12 12 11 11 11 11 10 10 12 12 12 12 12 12 11 11 11 11 11 10 10 10 10 10 10 9 9 9 9 9 8 8 8 8
10 9 9 10 11 11 11 12 13 12 12 12 12 11 11 10 11 12 12 12 11 11 11 11 11 11 11 10 10 10 10 10 10 9 9 9 9 9 8 8 8 8 7 7
10 9 9 9 10 11 11 11 11 11 12 12 12 12 11 11 11 11 11 11 11 11 11 11 11 11 10 10 10 10 10 9 9 9 9 9 8 8 8 8 8 7 7 7
9 9 9 9 10 10 11 11 12 12 12 12 12 12 12 11 11 11 11 11 11 10 10 10 10 10 10 9 9 9 9 9 9 9 8 8 8 8 8 7 7 7 7 6
8 8 8 8 9 10 10 11 11 11 11 12 12 12 11 11 11 10 10 10 10 10 10 10 9 9 9 9 9 9 9 9 9 8 8 8 8 7 7 7 7 6 6 6
8 8 8 8 8 9 10 11 11 11 11 11 11 11 11 11 10 10 10 10 10 10 9 9 9 9 9 9 9 8 8 8 8 8 8 7 7 7 7 7 6 6 6 6
7 7 8 9 9 9 10 11 11 10 10 10 10 10 10 10 10 10 10 9 9 9 9 9 9 9 9 8 8 8 8 8 8 8 7 7 7 7 6 6 6 6 5 5

GEFSCGP_850_meantemp_330.txt.gz
Temperature
22 23 23 23 23 23 23 22 22 22 22 22 22 22 22 21 20 20 20 19 19 18 17 17 16 16 16 16 16 16 15 15 15 15 15 15 14 14 14 14 14 14 14 14
23 22 23 23 22 22 22 22 22 22 22 22 22 22 22 21 21 20 20 19 19 18 17 17 16 16 16 16 16 15 15 15 15 15 15 14 14 14 14 14 14 14 14 14
23 23 22 22 22 22 22 22 22 22 21 21 22 22 22 22 20 20 19 19 19 18 18 17 16 16 16 16 16 15 15 15 15 15 14 14 14 14 14 14 14 14 14 14
22 22 22 22 22 22 22 22 22 21 21 22 22 22 23 22 21 20 20 19 19 18 18 17 16 16 16 16 15 15 15 15 15 14 14 14 14 14 14 14 13 13 13 13
22 22 22 22 22 22 22 21 21 21 22 22 22 22 23 22 21 21 20 19 19 18 18 17 16 16 16 16 15 15 15 15 15 14 14 14 14 14 14 13 13 13 13 13
22 22 22 22 22 21 21 21 21 21 22 21 22 22 22 22 22 21 20 19 18 18 17 17 16 16 16 15 15 15 15 15 15 14 14 14 14 14 13 13 13 13 13 13
22 22 21 21 21 21 21 22 21 21 21 21 21 21 22 22 21 20 20 19 18 17 17 17 16 16 15 15 15 15 15 14 14 14 14 14 14 14 14 13 13 13 13 13
21 21 22 22 22 22 22 22 21 21 21 22 21 21 22 21 20 19 19 18 17 17 17 16 16 15 15 15 15 15 15 14 14 14 14 14 14 13 13 13 13 13 13 13
21 21 21 21 21 22 21 22 22 22 21 21 22 22 21 20 20 19 18 18 17 17 16 16 15 15 15 15 15 15 14 14 14 14 14 14 13 13 13 13 13 13 12 12
21 21 21 21 21 20 21 22 21 21 20 20 21 21 21 20 20 19 19 18 17 16 16 15 15 14 14 14 14 14 14 14 14 13 13 13 13 13 13 13 12 12 12 12
21 21 21 21 21 21 21 21 21 21 21 20 20 21 21 20 20 19 19 18 17 16 15 15 14 14 14 14 14 14 13 13 13 13 13 13 13 13 13 12 12 12 12 12
20 21 21 21 20 20 21 21 21 20 21 20 20 21 20 20 19 18 18 17 16 16 15 14 14 13 13 13 13 13 13 13 13 13 12 12 13 12 12 12 12 12 11 11
19 20 20 20 20 20 20 20 20 20 20 20 20 20 19 19 19 18 17 16 16 15 14 14 13 13 13 13 13 13 13 12 12 12 12 12 12 12 12 12 12 11 11 11
18 20 20 20 20 20 19 19 19 19 20 20 20 20 19 19 18 17 16 16 15 15 14 14 13 13 12 12 12 12 12 12 12 12 12 12 12 11 11 11 11 11 10 10
19 20 20 19 19 19 19 19 18 19 19 20 20 19 19 19 18 17 16 15 14 14 14 13 13 13 12 12 12 12 12 12 11 11 11 11 11 11 11 11 10 10 10 10
18 19 19 18 18 18 18 18 18 18 18 19 18 18 19 17 17 16 15 14 14 13 13 13 13 12 12 12 11 11 11 11 11 11 11 11 10 10 10 10 10 10 9 9
18 18 18 19 18 18 18 18 18 18 17 18 18 18 17 17 16 15 15 14 13 13 12 12 12 12 12 11 11 11 11 11 10 10 10 10 10 10 10 9 9 9 9 9
18 18 18 18 18 17 18 18 17 17 17 17 17 16 16 16 15 14 14 13 13 12 12 11 11 11 11 11 11 11 11 10 10 10 10 9 9 9 9 9 9 8 8 8
17 17 17 17 17 18 17 16 16 16 16 16 16 15 15 14 14 14 13 12 12 12 11 11 11 11 10 10 10 10 10 10 10 10 9 9 9 9 9 9 8 8 8 8
15 17 17 17 16 17 17 16 15 16 16 15 15 14 14 14 16 15 12 11 11 11 10 10 10 10 10 10 10 10 10 10 10 9 9 9 9 8 8 8 8 8 7 7
15 16 16 16 16 17 16 14 15 16 16 14 14 13 13 14 14 13 12 11 11 10 10 10 10 10 10 10 10 9 9 9 9 9 9 8 8 8 8 7 7 7 7 7
16 16 16 16 16 16 14 14 15 15 14 13 13 12 12 12 12 11 11 10 10 10 9 9 9 9 9 9 9 9 9 9 9 8 8 8 8 8 7 7 7 7 7 6
15 15 16 16 15 14 13 13 13 12 13 12 12 12 11 11 11 10 10 10 10 9 9 9 9 9 9 9 9 9 9 9 8 8 8 8 8 7 7 7 7 6 6 6
14 13 14 14 14 13 12 12 11 11 11 11 11 11 10 10 10 10 10 9 9 9 9 9 9 9 9 9 9 8 8 8 8 8 8 8 7 7 7 7 6 6 6 6
14 13 14 14 14 12 11 11 11 11 11 10 10 10 10 10 9 9 9 9 9 9 9 9 8 8 8 8 8 8 8 8 8 7 7 7 7 7 7 6 6 6 6 6
13 13 14 14 13 13 12 11 10 10 10 10 10 9 9 9 9 9 9 8 8 8 8 8 8 8 8 8 8 8 7 7 7 7 7 7 6 6 6 6 6 6 6 6

GEFSCGP_850_meantemp_336.txt.gz
Temperature
25 24 23 24 24 25 25 24 24 24 25 24 23 23 23 23 23 23 22 21 21 20 20 19 18 18 18 17 17 17 16 16 16 16 15 15 15 15 15 15 15 15 15 15
24 24 24 25 25 25 24 24 24 24 25 24 24 23 23 23 23 23 22 22 21 21 20 19 18 18 18 17 17 17 16 16 16 15 15 15 15 15 15 14 14 14 14 14
24 24 25 25 25 24 24 24 24 24 24 24 23 22 23 23 23 22 22 22 21 20 20 19 18 18 18 17 17 17 16 16 16 15 15 15 15 14 14 14 14 14 14 14
24 25 25 24 24 24 23 24 24 24 23 22 23 21 22 23 22 22 22 21 21 20 20 19 19 18 18 17 17 17 16 16 16 15 15 15 15 14 14 14 14 14 14 14
24 25 24 24 24 24 24 24 24 24 23 22 23 22 22 23 22 22 22 21 21 20 20 19 18 18 18 17 17 16 16 16 16 15 15 15 15 14 14 14 14 14 14 14
24 25 25 24 25 25 24 24 24 23 22 21 23 23 21 22 22 22 22 21 21 20 19 19 18 18 17 17 17 16 16 16 16 15 15 15 15 14 14 14 14 14 13 13
23 24 25 25 24 24 24 22 21 21 21 21 24 23 21 22 23 22 21 21 20 20 19 18 18 17 17 16 16 16 16 16 15 15 15 15 15 14 14 14 14 13 13 13
23 23 24 24 23 23 23 23 21 20 21 22 24 22 21 23 22 22 21 21 20 19 19 18 17 17 16 16 16 15 15 15 15 15 15 15 14 14 14 14 13 13 13 13
23 23 24 24 24 24 23 23 23 22 22 22 23 22 21 22 22 21 21 20 20 19 18 18 17 16 16 16 15 15 15 15 15 15 14 14 14 14 14 14 13 13 13 13
23 22 24 24 24 24 24 23 23 22 21 20 22 22 20 20 21 21 20 20 19 19 18 17 17 16 16 15 15 15 15 14 14 14 14 14 14 14 13 13 13 13 13 13
23 22 23 23 22 23 23 23 22 22 22 21 20 21 22 21 21 20 20 20 19 19 18 17 17 16 15 15 15 14 14 14 14 14 14 14 13 13 13 13 13 13 13 12
23 22 22 23 23 24 23 23 22 21 21 21 20 20 22 21 21 20 20 19 19 18 18 17 16 16 15 15 14 14 14 14 13 13 13 13 13 13 13 12 12 12 12 12
21 21 21 21 21 22 22 23 22 22 21 20 20 20 21 21 20 19 19 18 18 18 17 17 16 15 15 14 14 14 13 13 13 13 13 13 12 12 12 12 12 12 11 11
20 21 21 20 21 21 21 22 22 21 20 20 20 20 20 20 19 19 18 18 17 17 16 16 15 15 14 14 14 13 13 13 13 13 12 12 12 12 11 11 11 11 11 11
21 20 21 22 22 22 21 21 21 21 21 20 20 20 20 19 19 18 18 17 17 16 15 15 15 14 14 13 13 13 13 13 12 12 12 12 11 11 11 11 10 10 10 10
21 20 21 21 22 22 21 21 21 21 20 20 20 19 20 19 18 18 17 16 16 15 15 14 14 14 13 13 13 13 12 12 12 12 12 11 11 11 10 10 10 10 10 9
20 20 20 20 21 21 20 20 20 20 20 20 19 18 18 18 17 17 16 16 15 14 14 14 13 13 13 13 12 12 12 12 11 11 11 11 11 10 10 10 10 9 9 9
20 20 19 19 20 18 19 20 20 19 19 19 18 18 17 17 16 16 15 15 15 14 13 13 13 13 12 12 12 12 11 11 11 11 11 11 10 10 10 9 9 9 9 9
20 19 19 19 18 18 19 19 19 18 17 18 17 17 17 16 16 15 15 14 14 14 13 13 12 12 12 12 11 11 11 11 10 10 10 10 10 10 9 9 9 9 8 8
19 19 18 18 18 17 18 18 19 18 16 17 17 16 16 15 15 14 14 14 13 13 12 12 12 12 11 11 11 10 10 10 10 10 10 10 9 9 9 9 8 8 8 8
18 18 18 17 17 17 17 17 18 16 16 16 16 15 15 14 14 14 14 13 13 12 12 12 11 11 11 11 10 10 10 10 10 10 9 9 9 8 8 8 8 8 8 7
18 17 17 17 16 16 17 17 16 16 16 15 15 14 14 14 13 13 13 12 12 12 11 11 11 10 10 10 10 10 10 10 9 9 9 9 8 8 8 8 8 7 7 7
18 17 17 16 16 16 16 16 15 15 15 14 14 13 13 13 13 12 12 11 11 11 11 10 10 10 10 10 9 9 9 9 9 9 9 8 8 8 7 7 7 7 7 6
17 18 17 16 16 16 15 15 14 14 14 13 13 13 13 12 12 12 11 11 10 10 10 10 10 9 9 9 9 9 9 9 9 8 8 8 7 7 7 7 7 7 6 6
16 17 16 16 15 15 15 14 14 13 13 13 12 12 12 11 11 11 10 10 10 9 9 9 9 9 9 9 8 8 9 9 8 8 8 7 7 7 7 7 7 6 6 6
16 16 15 15 15 15 14 14 13 13 12 12 12 11 11 11 11 10 10 9 9 9 9 9 8 8 8 8 8 8 8 8 8 7 7 7 7 7 7 7 6 6 6 6

GEFSCGP_850_meantemp_342.txt.gz
Temperature
21 18 18 18 19 20 20 19 19 19 20 19 18 18 17 18 18 17 17 18 18 18 18 18 18 18 17 17 17 17 16 16 16 16 16 15 15 15 15 15 15 15 15 14
18 18 20 20 20 20 20 19 19 20 20 20 18 18 17 17 17 18 17 17 18 18 18 18 17 17 17 17 17 17 16 16 16 16 16 15 15 15 15 14 14 14 14 14
19 20 21 21 20 20 20 20 19 20 20 19 18 17 17 17 18 18 18 18 18 18 17 17 17 17 17 17 17 16 16 16 16 16 15 15 15 15 14 14 14 14 14 14
19 20 21 21 20 20 19 20 20 20 18 17 18 16 17 16 16 16 17 17 17 17 17 17 17 17 17 16 16 16 16 16 16 15 15 15 15 15 14 14 14 14 14 14
19 20 20 20 21 21 20 21 20 20 18 17 17 16 16 16 16 16 16 16 17 17 17 17 17 17 16 16 16 16 16 16 15 15 15 15 15 14 14 14 14 14 14 14
19 20 21 21 21 21 20 19 18 16 16 17 17 16 15 15 16 16 16 16 16 17 17 17 16 16 16 16 16 16 16 15 15 15 15 15 14 14 14 14 14 13 13 13
19 20 20 21 20 20 19 16 16 16 15 16 17 16 15 16 16 16 16 16 17 17 16 16 16 16 16 16 16 15 15 15 15 15 15 14 14 14 14 14 13 13 13 13
18 18 20 20 20 19 18 17 16 16 15 16 16 16 16 17 17 17 17 17 17 16 16 16 16 16 16 16 15 15 15 15 14 14 14 14 14 14 13 13 13 13 13 13
17 17 20 20 21 19 18 17 17 15 16 16 15 16 16 17 16 16 16 16 16 16 16 16 16 16 15 15 15 15 15 15 14 14 14 14 14 13 13 13 13 13 13 12
18 18 18 20 20 20 19 17 15 15 16 15 15 15 15 16 16 16 15 15 16 16 16 16 16 15 15 15 15 15 14 14 14 14 14 13 13 13 13 12 12 12 12 12
18 17 17 18 19 19 18 18 16 14 15 15 15 15 16 16 16 15 15 15 16 16 16 16 16 15 15 15 15 14 14 14 14 13 13 13 13 13 12 12 12 12 12 11
17 15 15 17 18 19 18 18 16 15 15 14 14 14 16 15 15 15 15 15 15 15 16 15 15 15 15 14 14 14 14 13 13 13 13 13 12 12 12 12 12 11 11 11
16 15 15 16 16 17 18 18 16 15 14 13 14 14 15 15 15 15 15 15 15 15 15 15 15 14 14 14 14 13 13 13 13 13 12 12 12 12 12 11 11 11 11 10
16 14 15 16 16 16 17 17 17 15 14 14 14 14 15 14 14 14 15 15 15 14 14 14 14 14 14 13 13 13 13 13 12 12 12 12 12 12 11 11 11 10 10 10
15 15 15 15 16 17 17 17 17 16 15 14 15 15 14 14 14 14 14 14 14 13 13 13 13 13 13 13 13 12 12 12 12 12 12 12 11 11 11 11 10 10 10 10
14 15 15 16 17 16 16 16 16 16 16 15 15 14 14 14 14 13 13 13 13 13 13 13 13 13 13 12 12 12 12 12 11 11 11 11 11 11 10 10 10 10 10 9
13 14 14 14 15 16 15 15 16 15 15 15 14 14 13 12 12 12 13 13 12 12 12 12 12 12 12 12 12 12 12 11 11 11 11 11 11 10 10 10 10 9 9 9
13 13 12 13 14 15 15 15 15 15 14 14 14 13 13 13 13 13 13 13 12 12 12 12 12 12 12 11 11 11 11 11 11 11 11 10 10 10 10 9 9 9 9 9
13 13 12 12 13 13 14 15 15 14 13 13 13 12 12 12 12 12 12 13 12 12 12 12 12 12 11 11 11 11 11 10 10 10 10 10 10 10 9 9 9 9 9 8
13 12 12 12 13 13 14 15 15 14 13 13 12 12 12 12 10 10 12 12 12 12 12 11 11 11 11 11 11 10 10 10 10 10 10 10 10 9 9 9 9 8 8 8
13 12 12 11 12 12 13 14 15 13 13 13 13 12 12 11 11 12 12 12 12 12 11 11 11 11 11 10 10 10 10 10 10 10 10 10 9 9 9 9 8 8 8 7
12 11 11 11 11 12 13 13 12 12 13 13 12 12 12 12 12 12 11 11 11 11 11 11 11 10 10 10 10 10 10 10 9 9 9 9 9 9 8 8 8 7 7 7
11 11 10 11 11 12 13 13 14 13 13 12 12 12 12 11 11 11 11 11 10 10 10 10 10 10 10 10 10 10 9 9 9 9 9 9 8 8 8 8 7 7 7 6
11 11 10 10 11 11 12 13 13 13 13 13 12 12 12 11 11 11 11 10 10 10 10 10 10 9 9 9 9 9 9 9 9 8 8 8 8 8 7 7 7 7 6 6
11 11 10 10 10 11 12 12 13 13 12 12 12 11 11 11 11 10 10 10 10 9 9 9 9 9 9 9 9 9 9 8 8 8 8 8 7 7 7 7 6 6 6 6
9 10 10 10 10 10 11 12 12 12 12 12 11 11 11 10 10 10 10 9 9 9 9 9 9 9 8 8 8 8 8 8 8 8 7 7 7 7 6 6 6 6 6 5

GEFSCGP_850_meantemp_348.txt.gz
Temperature
18 16 17 17 17 18 18 17 17 17 17 17 16 16 16 16 15 15 15 16 16 16 17 16 16 16 16 16 16 16 16 15 15 15 15 15 15 15 15 14 14 14 14 14
17 17 18 18 18 18 18 17 17 17 17 17 16 16 15 15 15 15 15 16 16 16 16 16 16 16 16 16 16 16 16 15 15 15 15 15 15 14 14 14 14 14 14 14
18 18 19 19 18 18 18 17 17 17 17 16 16 16 15 15 15 15 15 16 16 16 16 16 16 16 16 16 15 15 15 15 15 15 15 15 14 14 14 14 14 14 13 13
18 18 19 19 18 18 18 18 18 17 16 15 16 15 15 14 14 14 14 15 16 16 16 16 16 16 16 15 15 15 15 15 15 15 14 14 14 14 14 14 14 13 13 13
18 18 18 18 19 18 18 18 17 17 16 15 15 15 14 14 14 14 14 15 15 16 16 16 16 16 16 15 15 15 15 15 15 14 14 14 14 14 14 13 13 13 13 13
18 18 18 19 19 18 17 16 15 14 14 15 15 14 14 13 14 14 14 15 15 15 15 16 16 16 15 15 15 15 15 15 14 14 14 14 14 14 13 13 13 13 13 13
17 18 18 19 18 17 17 15 15 15 14 14 14 14 14 14 14 14 14 14 15 15 15 15 15 15 15 15 15 14 14 14 14 14 14 13 13 13 13 13 13 13 12 12
16 16 18 18 18 17 16 16 15 15 14 14 14 14 14 15 15 15 15 15 15 15 15 15 15 15 15 15 15 14 14 14 14 14 13 13 13 13 13 13 12 12 12 12
15 16 17 18 18 17 16 15 15 14 14 14 14 14 14 14 14 14 14 14 14 15 15 15 15 15 15 14 14 14 14 14 14 13 13 13 13 13 12 12 12 12 12 11
15 16 16 17 18 17 16 14 13 14 14 14 14 14 14 14 14 13 13 13 14 14 15 14 14 14 14 14 14 14 14 14 13 13 13 13 12 12 12 12 12 12 11 11
16 15 15 16 17 17 16 15 13 12 13 13 14 14 14 14 14 13 13 13 14 14 14 14 14 14 14 14 14 13 13 13 13 13 12 12 12 12 12 11 11 11 11 11
14 13 14 15 16 16 16 15 13 14 13 12 12 13 14 13 13 13 13 14 14 14 14 14 14 14 14 13 13 13 13 13 13 12 12 12 11 11 11 11 11 11 11 10
14 13 13 14 15 15 15 15 14 12 12 11 12 14 14 13 13 13 13 14 14 14 13 13 13 13 13 13 13 13 13 13 12 12 12 11 11 11 11 11 10 10 10 10
14 12 13 14 14 15 15 15 14 13 12 12 12 13 13 13 12 12 13 13 13 13 13 13 13 13 13 13 12 12 12 12 12 11 11 11 11 11 10 10 10 10 10 10
13 13 13 13 14 14 14 14 14 13 13 13 13 13 13 13 12 12 13 13 12 12 12 12 12 12 13 12 12 12 12 12 11 11 11 11 11 10 10 10 10 10 10 9
11 13 13 13 14 14 13 14 14 13 13 13 13 13 12 12 12 12 12 12 12 12 12 12 12 12 12 12 12 12 12 11 11 11 11 11 10 10 10 10 10 9 9 9
11 12 12 12 12 13 13 13 13 13 13 13 13 13 12 11 11 11 11 11 12 12 12 12 12 12 12 12 12 11 11 11 11 11 10 10 10 10 10 10 9 9 9 9
11 11 10 11 12 13 13 13 13 13 12 12 12 12 11 11 11 12 12 12 12 12 12 11 12 12 11 11 11 11 11 11 11 10 10 10 10 10 10 9 9 9 9 9
10 11 10 10 11 12 12 13 12 13 12 12 11 11 11 11 11 11 12 12 12 12 12 11 11 11 11 11 11 10 10 10 10 10 10 10 10 9 9 9 9 9 8 8
9 10 10 10 11 12 12 13 13 13 12 12 11 11 10 10 9 10 12 12 11 11 11 11 11 11 10 10 10 10 10 10 10 10 10 9 9 9 9 9 9 8 8 8
10 9 9 10 10 11 11 12 12 12 12 12 12 11 11 10 11 12 11 11 11 11 11 11 10 10 10 10 10 10 10 10 10 9 9 9 9 9 9 8 8 8 8 8
10 9 9 9 10 11 11 11 11 11 12 12 12 12 11 11 12 11 11 11 11 10 10 10 10 10 10 10 10 10 9 9 9 9 9 9 8 8 8 8 8 7 7 7
9 9 9 9 10 10 11 11 12 12 12 12 12 12 11 11 11 11 10 10 10 10 10 10 9 9 9 9 9 9 9 9 8 8 8 8 8 8 8 7 7 7 7 7
8 8 8 8 9 10 11 11 11 11 11 12 12 11 11 11 11 10 10 10 10 10 9 9 9 9 9 9 9 9 8 8 8 8 8 8 8 7 7 7 7 7 6 6
8 7 7 8 8 9 10 11 11 11 11 11 11 11 11 10 10 10 10 9 9 9 9 9 9 8 8 8 8 8 8 8 8 8 7 7 7 7 7 7 6 6 6 6
7 7 7 8 9 8 10 11 11 10 10 10 10 10 10 10 10 10 9 9 9 9 9 8 8 8 8 8 8 8 8 7 7 7 7 7 7 6 6 6 6 6 6 5

GEFSCGP_850_meantemp_354.txt.gz
Temperature
22 23 23 23 23 23 23 22 22 22 22 21 21 21 21 20 19 19 19 19 18 18 17 16 16 16 16 15 15 15 15 15 15 14 14 14 14 14 14 14 14 14 14 14
23 23 23 22 22 22 22 22 22 21 21 21 21 21 21 20 20 19 19 19 18 18 17 16 16 15 15 15 15 15 15 14 14 14 14 14 14 14 14 14 14 13 13 13
23 23 22 22 22 22 22 22 22 21 21 21 21 21 21 21 20 19 18 18 18 17 17 16 16 15 15 15 15 15 15 14 14 14 14 14 14 13 13 13 13 13 13 13
23 22 22 22 22 22 22 22 21 21 21 21 21 21 22 21 20 19 19 18 17 17 16 16 15 15 15 15 15 14 14 14 14 14 14 14 13 13 13 13 13 13 13 13
22 22 22 22 22 22 22 21 21 21 21 21 21 21 22 21 21 20 19 18 17 17 16 16 15 15 15 15 14 14 14 14 14 14 13 13 13 13 13 13 13 12 12 12
22 22 22 22 22 21 21 21 21 21 21 21 21 21 21 22 21 21 20 18 17 16 16 15 15 15 14 14 14 14 14 14 13 13 13 13 13 13 13 12 12 12 12 12
22 22 21 21 21 21 21 21 21 21 21 21 21 21 21 21 21 21 20 18 17 16 15 15 15 14 14 14 14 14 14 13 13 13 13 13 12 12 12 12 12 12 11 11
21 21 21 21 22 22 21 22 21 20 21 21 21 21 21 21 19 19 18 18 16 16 15 15 14 14 14 14 14 14 13 13 13 13 13 12 12 12 12 12 12 11 11 11
21 21 21 21 21 22 21 21 22 21 21 20 21 21 21 20 19 18 18 17 16 16 15 15 14 14 14 14 13 13 13 13 13 12 12 12 12 12 12 11 11 11 11 11
21 20 21 20 21 20 21 21 21 21 20 20 21 21 21 20 20 19 18 17 16 15 15 14 14 14 14 13 13 13 13 13 12 12 12 12 12 11 11 11 11 11 10 10
20 20 20 20 20 21 20 20 20 21 20 20 20 21 21 21 20 19 18 17 16 15 15 14 14 13 13 13 13 12 12 12 12 12 12 11 11 11 11 11 11 10 10 10
19 20 20 20 20 19 20 21 20 20 20 20 20 20 21 20 19 18 18 17 16 15 14 14 14 13 13 13 12 12 12 12 12 12 11 11 11 11 11 10 10 10 10 10
19 19 19 20 19 19 19 20 20 20 20 20 20 20 20 19 19 18 17 16 15 14 14 14 13 13 13 12 12 12 12 12 12 11 11 11 11 11 11 10 10 10 10 10
18 19 19 19 19 19 19 18 18 19 19 19 20 20 20 19 18 17 16 15 15 14 14 13 13 13 12 12 12 12 11 11 11 11 11 11 11 10 10 10 10 10 10 10
18 19 19 19 19 18 18 18 18 18 19 19 19 19 19 19 18 17 16 15 14 14 13 13 12 12 12 12 12 11 11 11 11 11 11 11 10 10 10 10 10 10 9 9
18 18 18 18 18 18 17 17 17 17 18 18 18 18 18 17 17 16 16 15 14 13 13 12 12 12 12 12 11 11 11 11 11 10 10 10 10 10 10 10 10 9 9 9
17 17 17 18 17 17 17 17 17 17 17 17 17 18 17 17 16 16 15 14 14 13 12 12 12 11 11 11 11 11 11 10 10 10 10 10 10 10 10 10 10 9 9 9
17 17 17 17 17 16 17 17 17 17 16 17 17 16 16 16 15 14 14 14 13 12 12 11 11 11 11 11 11 11 10 10 10 10 10 10 10 10 10 9 9 9 9 9
16 16 16 16 16 17 16 16 16 16 16 16 16 16 15 14 14 14 13 13 12 12 11 11 11 10 10 10 10 10 10 10 10 10 9 9 9 9 9 9 9 9 8 8
15 16 16 16 15 16 16 16 15 16 16 15 15 15 14 14 15 15 13 12 11 11 11 11 10 10 10 10 10 10 9 9 9 9 9 9 9 9 9 9 9 9 8 8
15 15 15 15 16 16 15 14 15 15 15 14 14 14 14 14 14 13 12 11 11 11 10 10 10 10 10 10 9 9 9 9 9 9 9 9 9 9 9 9 8 8 8 8
15 15 15 15 15 15 14 14 14 15 14 13 13 13 13 12 12 11 11 10 10 10 10 10 10 9 9 9 9 9 9 9 9 9 9 9 9 9 8 8 8 8 8 7
14 15 15 15 15 14 13 13 13 12 12 12 12 11 11 11 11 10 10 10 9 9 9 9 9 9 9 9 9 8 8 8 8 8 8 8 8 8 8 8 8 8 7 7
14 13 13 13 14 13 12 12 11 11 11 11 11 10 10 10 10 10 9 9 9 9 9 9 9 8 8 8 8 8 8 8 8 8 8 8 8 8 8 8 7 7 7 6
13 12 13 13 13 12 12 11 11 10 10 10 10 10 9 9 9 9 9 9 8 8 8 8 8 8 8 8 8 8 8 8 7 7 7 7 7 7 7 7 7 7 7 6
12 12 13 13 13 12 12 11 10 10 9 9 9 9 9 9 8 9 8 8 8 8 8 8 8 8 8 8 7 7 7 7 7 7 7 7 7 7 6 6 6 6 6 6